Date,TemperatureHighF,TemperatureAvgF,TemperatureLowF,DewpointHighF,DewpointAvgF,DewpointLowF,HumidityHigh,HumidityAvg,HumidityLow,PressureMaxIn,PressureMinIn,WindSpeedMaxMPH,WindSpeedAvgMPH,GustSpeedMaxMPH,PrecipitationSumIn
2013-1-1,46.5,35.5,26.8,25.0,22.0,18.0,77,60,34,30.45,30.41,2,1,5,0.00
2013-1-2,52.7,35.5,22.5,26.1,22.1,17.2,81,61,33,30.44,30.29,4,1,11,0.00
2013-1-3,47.1,35.4,26.7,32.6,26.1,20.6,87,70,43,30.48,30.30,8,3,15,0.00
2013-1-4,48.9,34.9,26.7,29.1,26.2,22.6,87,72,46,30.57,30.46,4,1,9,0.00
2013-1-5,59.1,36.7,22.8,29.2,20.1,6.3,85,57,14,30.64,30.52,3,1,5,0.00
2013-1-6,55.9,44.6,30.3,23.7,18.7,11.4,56,36,24,30.54,30.16,6,2,13,0.00
2013-1-7,56.9,41.6,29.4,24.7,19.8,5.5,68,46,13,30.17,29.99,7,2,9,0.00
2013-1-8,57.8,43.3,30.9,27.1,23.1,17.3,72,47,24,30.33,30.09,5,2,9,0.00
2013-1-9,62.0,44.4,30.2,22.7,17.3,11.2,63,38,14,30.49,30.31,6,2,12,0.00
2013-1-10,63.3,47.3,29.4,22.2,16.5,12.0,55,31,16,30.31,30.02,23,5,28,0.00
2013-1-11,49.1,37.8,27.2,31.8,13.4,-4.9,76,39,12,30.18,30.02,16,6,22,0.00
2013-1-12,36.2,25.1,15.0,10.7,6.1,2.2,68,46,25,30.44,30.17,9,3,17,0.00
2013-1-13,43.6,27.1,14.8,9.4,3.8,-2.8,63,40,16,30.45,30.29,5,2,17,0.00
2013-1-14,37.9,24.6,12.9,5.8,2.0,-2.7,64,40,21,30.52,30.34,10,3,17,0.00
2013-1-15,37.0,22.0,8.8,6.0,-0.6,-7.0,69,41,15,30.74,30.51,4,1,9,0.00
2013-1-16,53.8,33.8,17.7,9.4,2.8,-2.4,45,30,13,30.77,30.59,6,2,11,0.00
2013-1-17,61.4,43.3,23.9,12.9,10.2,6.2,55,28,14,30.62,30.48,6,2,12,0.00
2013-1-18,65.2,44.2,27.6,16.8,12.0,7.6,48,29,12,30.51,30.36,4,2,9,0.00
2013-1-19,70.1,49.6,34.2,27.5,20.3,8.9,53,34,14,30.50,30.34,3,1,6,0.00
2013-1-20,71.4,51.9,37.6,32.5,28.5,23.8,69,43,22,30.41,30.21,3,1,8,0.00
2013-1-21,70.1,53.3,38.1,32.8,30.2,27.3,74,46,24,30.31,30.21,4,2,8,0.00
2013-1-27,52.5,51.5,49.1,39.5,38.7,36.5,69,62,59,30.14,30.13,5,2,9,0.15
2013-1-28,52.3,45.1,31.5,41.4,35.5,27.2,92,70,52,30.15,30.04,12,6,20,0.14
2013-1-29,42.7,34.3,27.4,29.4,21.5,16.2,93,62,36,30.47,30.15,10,6,16,0.03
2013-1-30,49.2,36.6,24.8,21.7,16.6,5.4,78,48,19,30.63,30.47,6,2,9,0.00
2013-1-31,57.9,41.5,27.3,29.0,22.3,17.6,73,50,25,30.53,30.40,3,1,7,0.00
2013-2-1,68.9,46.9,30.4,28.5,22.1,15.2,68,42,14,30.48,30.37,3,1,6,0.00
2013-2-2,70.2,52.0,36.8,26.0,19.7,8.4,48,32,9,30.47,30.34,3,1,7,0.00
2013-2-3,60.9,50.9,43.8,40.0,28.3,18.7,69,44,23,30.36,30.15,12,1,17,0.00
2013-2-4,62.7,50.4,36.9,36.8,34.2,29.3,75,56,35,30.24,30.12,5,1,8,0.00
2013-2-5,67.7,51.4,38.1,39.7,33.4,29.1,82,55,25,30.23,30.10,5,2,8,0.00
2013-2-6,63.2,48.9,35.7,36.5,31.9,25.5,82,55,26,30.24,30.09,9,2,12,0.00
2013-2-7,65.6,48.6,34.8,35.2,28.3,21.3,78,50,19,30.31,30.18,3,1,8,0.00
2013-2-8,62.2,51.8,38.6,24.8,16.8,-4.5,54,28,7,30.19,29.92,17,8,31,0.00
2013-2-9,48.4,39.8,30.9,29.9,21.4,14.9,77,49,31,30.25,29.90,16,7,25,0.00
2013-2-10,33.2,25.2,23.0,21.3,16.8,15.2,76,70,60,30.30,30.25,2,1,4,0.00
2013-6-7,98.2,90.3,75.2,23.5,16.8,3.2,14,7,3,29.82,29.70,8,3,0,0.00
2013-6-8,95.8,83.4,64.9,34.5,22.3,13.0,23,12,5,29.89,29.78,21,4,21,0.00
2013-6-9,95.5,83.6,66.4,36.3,25.0,13.8,28,14,6,29.93,29.82,19,4,19,0.00
2013-6-10,98.8,84.4,65.0,31.3,23.6,14.7,22,12,6,29.97,29.82,8,3,15,0.00
2013-6-11,100.4,85.3,65.3,32.5,22.7,10.2,23,11,4,29.93,29.81,9,3,18,0.00
2013-6-12,100.2,85.3,66.1,32.6,25.7,20.0,21,12,6,29.98,29.82,8,3,15,0.00
2013-6-13,95.9,84.0,68.3,48.4,38.8,29.4,49,22,11,29.94,29.79,9,4,16,0.00
2013-6-14,91.7,78.6,69.1,58.5,49.1,43.1,53,36,22,29.92,29.81,10,3,15,0.00
2013-6-15,93.6,78.1,64.3,54.4,49.8,42.3,57,38,20,30.00,29.89,10,2,15,0.00
2013-6-16,96.3,81.3,65.1,51.8,42.4,27.1,54,29,10,30.03,29.90,9,2,15,0.00
2013-6-17,94.8,81.9,63.9,34.5,23.5,12.4,27,13,5,29.99,29.86,11,3,17,0.00
2013-6-18,96.5,81.0,62.5,27.7,9.7,-21.2,22,9,1,29.94,29.82,8,3,19,0.00
2013-6-19,97.0,82.5,62.2,32.6,20.6,0.9,23,11,4,29.87,29.76,13,4,23,0.00
2013-6-20,95.9,80.3,57.9,35.4,17.0,-24.8,27,12,1,29.90,29.81,12,3,17,0.00
2013-6-21,94.9,81.3,61.4,42.0,28.6,0.8,36,18,3,29.94,29.85,12,3,20,0.00
2013-6-22,93.8,81.8,67.4,36.5,23.0,0.0,28,14,4,29.94,29.81,12,4,21,0.00
2013-6-23,93.2,80.1,58.9,35.9,29.6,20.5,31,17,9,29.91,29.78,12,4,23,0.00
2013-6-24,92.0,81.2,67.2,38.0,32.5,24.7,30,18,12,29.92,29.82,12,4,19,0.00
2013-6-25,94.2,80.7,61.7,40.4,26.7,14.7,40,17,6,30.00,29.91,9,3,20,0.00
2013-6-26,95.8,82.1,66.4,32.9,25.8,16.2,26,14,8,30.07,29.95,7,2,17,0.00
2013-6-27,97.2,83.9,65.6,38.6,29.9,21.1,24,15,9,30.10,29.95,7,3,15,0.00
2013-6-28,102.8,87.7,71.0,32.6,27.8,21.5,20,12,6,30.00,29.85,8,2,18,0.00
2013-6-29,102.9,87.4,70.4,40.5,32.9,21.0,26,16,6,29.95,29.78,6,2,13,0.00
2013-6-30,99.8,82.6,65.7,61.3,44.1,35.4,83,31,12,29.96,29.73,13,4,21,0.37
2013-7-1,95.5,82.1,67.6,59.7,53.3,39.9,74,41,16,30.00,29.86,6,1,12,0.00
2013-7-2,92.0,78.7,64.0,58.4,53.3,47.5,80,45,22,30.10,29.88,15,3,25,0.03
2013-7-3,93.3,79.8,66.0,59.2,51.8,46.1,73,41,22,30.04,29.78,11,2,19,0.02
2013-7-4,95.0,81.4,65.1,60.3,54.2,45.5,81,44,19,29.91,29.76,10,3,19,0.00